Location: Palo Alto
(37.4420°N, 122.1420°W)
Time: 03:43:04
(UTC-07:00)

ISS - All Passes

Search period start: 24 July 2016 00:00
Search period end: 03 August 2016 00:00
Orbit: 401 x 404 km, 51.6° (Epoch: 24 July)

Date Brightness Start Highest point End Pass type
(mag) Time Alt. Az. Time Alt. Az. Time Alt. Az.
24 Jul - 00:14:30 10° WNW 00:16:54 19° NNW 00:19:18 10° NNE visible
24 Jul - 05:06:32 10° NNW 05:09:29 30° NNE 05:12:25 10° E visible
24 Jul - 06:43:07 10° WNW 06:45:49 24° SW 06:48:31 10° S daylight
24 Jul - 21:44:45 10° S 21:47:27 25° SE 21:50:11 10° ENE visible
24 Jul - 23:20:53 10° W 23:23:48 30° NNW 23:26:44 10° NNE night (unlit)
25 Jul - 04:13:58 10° NNW 04:16:24 19° NNE 04:18:49 10° ENE visible
25 Jul - 05:49:50 10° WNW 05:53:01 52° SW 05:56:12 10° SSE daylight
25 Jul - 20:53:22 10° SSE 20:54:44 12° SE 20:56:07 10° ESE visible
25 Jul - 22:27:36 10° WSW 22:30:47 57° NW 22:34:00 10° NE visible
26 Jul - 00:06:31 10° NW 00:07:49 12° NNW 00:09:05 10° N visible
26 Jul - 03:21:35 10° N 03:23:13 13° NNE 03:24:50 10° NE visible
26 Jul - 04:56:52 10° NW 05:00:08 72° NE 05:03:23 10° SE visible
26 Jul - 21:34:39 10° SW 21:37:53 67° SE 21:41:07 10° NE visible
26 Jul - 23:12:23 10° WNW 23:14:36 17° NNW 23:16:49 10° NNE visible
27 Jul - 04:04:07 10° NW 04:07:09 36° NE 04:10:11 10° ESE visible
27 Jul - 05:40:57 10° W 05:43:24 20° SW 05:45:52 10° S visible
27 Jul - 20:42:09 10° SSW 20:45:03 30° SE 20:47:57 10° ENE visible
27 Jul - 22:18:41 10° W 22:21:29 26° NNW 22:24:17 10° NNE visible
28 Jul - 03:11:30 10° NNW 03:14:04 21° NNE 03:16:40 10° E visible
28 Jul - 04:47:32 10° WNW 04:50:38 41° SW 04:53:42 10° SSE visible
28 Jul - 19:50:22 10° SSE 19:52:18 15° SE 19:54:14 10° E daylight
28 Jul - 21:25:17 10° WSW 21:28:26 46° NW 21:31:36 10° NE visible
28 Jul - 23:04:39 10° NNW 23:05:31 11° NNW 23:06:24 10° N visible
29 Jul - 02:19:02 10° NNW 02:20:55 14° NNE 02:22:48 10° ENE night (unlit)
29 Jul - 03:54:30 10° NW 03:57:45 88° NE 04:01:00 10° SE visible
29 Jul - 20:32:14 10° SW 20:35:29 84° SE 20:38:45 10° NE daylight
29 Jul - 22:10:17 10° WNW 22:12:17 15° NNW 22:14:17 10° NNE visible
30 Jul - 01:27:04 10° N 01:27:40 10° NNE 01:28:17 10° NNE visible
30 Jul - 03:01:40 10° NW 03:04:48 42° NE 03:07:54 10° ESE night (unlit)
30 Jul - 04:38:51 10° W 04:40:58 16° SW 04:43:06 10° S night (unlit)
30 Jul - 19:39:35 10° SSW 19:42:37 37° SE 19:45:40 10° ENE daylight
30 Jul - 21:16:28 10° W 21:19:08 23° NNW 21:21:48 10° NNE visible
31 Jul - 02:09:00 10° NNW 02:11:44 24° NNE 02:14:29 10° E night (unlit)
31 Jul - 03:45:14 10° WNW 03:48:12 33° SW 03:51:10 10° SSE night (unlit)
31 Jul - 18:47:32 10° S 18:49:51 18° SE 18:52:09 10° E daylight
31 Jul - 20:22:59 10° WSW 20:26:03 39° NW 20:29:09 10° NE daylight
01 Aug - 01:16:29 10° NNW 01:18:35 16° NNE 01:20:42 10° ENE visible
01 Aug - 02:52:06 10° NW 02:55:21 75° SW 02:58:35 10° SE night (unlit)
01 Aug - 19:29:49 10° SW 19:33:04 79° NW 19:36:20 10° NE daylight
01 Aug - 21:08:12 10° NW 21:09:57 14° NNW 21:11:43 10° N visible
02 Aug - 00:24:15 10° N 00:25:21 11° NNE 00:26:27 10° NE visible
02 Aug - 01:59:13 10° NW 02:02:24 51° NE 02:05:35 10° ESE night (unlit)
02 Aug - 03:36:50 10° W 03:38:30 13° SW 03:40:10 10° SSW night (unlit)
02 Aug - 18:37:03 10° SSW 18:40:11 46° SE 18:43:20 10° ENE daylight
02 Aug - 20:14:15 10° WNW 20:16:46 20° NNW 20:19:17 10° NNE daylight
